Change the Weather History Date:

Wednesday, February 6, 2013

  Actual Average Record
Temperature  
Mean Temperature 54 °F -  
Max Temperature 70 °F 53 °F 76 °F (1957)
Min Temperature 37 °F 34 °F 13 °F (1966)
Degree Days  
Heating Degree Days 12    
Growing Degree Days 4 (Base 50)    
Moisture  
Dew Point 39 °F    
Average Humidity 70    
Maximum Humidity 100    
Minimum Humidity 23    
Precipitation  
Precipitation 0.00 in - - ()
Sea Level Pressure  
Sea Level Pressure 30.11 in    
Wind  
Wind Speed 0 mph (NE)    
Max Wind Speed 6 mph    
Max Gust Speed -    
Visibility 8 miles    
Events Fog    
Averages and records for this station are not official NWS values.
T = Trace of Precipitation, MM = Missing Value Source: NWS Daily Summary

Daily Weather History Graph

Daily Weather History Graph

Search for Another Location

Airport or City:

Trip Planner

Search our weather history database for the weather conditions in past years. The results will help you decide how hot, cold, wet, or windy it might be!

Date:

Astronomy

Feb. 06, 2013 Rise Set
Actual Time 7:31 AM EST 6:17 PM EST
Civil Twilight 7:05 AM EST 6:43 PM EST
Nautical Twilight 6:36 AM EST 7:12 PM EST
Astronomical Twilight 6:07 AM EST 7:41 PM EST
Moon 4:08 AM EST (2/6) 2:40 PM EST (2/6)
Length of Visible Light 11h 37m
Length of Day
10h 45m
Waning Crescent, 17% of the Moon is Illuminated
Feb 6
Waning Crescent
Feb 10
New
Feb 17
First Quarter
Feb 25
Full
Mar 4
Last Quarter

Hourly Weather History & Observations

Time (EST) Temp. Dew Point Humidity Pressure Visibility Wind Dir Wind Speed Gust Speed Precip Events Conditions
12:15 AM 47.8 °F 46.2 °F 94% 30.05 in 10.0 mi Calm Calm - N/A   Clear
12:35 AM 46.9 °F 46.4 °F 98% 30.04 in 10.0 mi Calm Calm - N/A   Clear
12:55 AM 46.6 °F 44.8 °F 93% 30.05 in 10.0 mi Calm Calm - N/A   Clear
1:15 AM 45.3 °F 44.1 °F 95% 30.05 in 10.0 mi Calm Calm - N/A   Scattered Clouds
1:35 AM 45.3 °F 44.1 °F 95% 30.05 in 10.0 mi Calm Calm - N/A   Clear
1:55 AM 45.3 °F 44.4 °F 97% 30.05 in 10.0 mi Calm Calm - N/A   Clear
2:15 AM 44.4 °F 43.2 °F 95% 30.06 in 10.0 mi Calm Calm - N/A   Scattered Clouds
2:35 AM 43.9 °F 43.2 °F 97% 30.06 in 10.0 mi Calm Calm - N/A   Mostly Cloudy
2:55 AM 44.1 °F 43.2 °F 97% 30.06 in 10.0 mi Calm Calm - N/A   Mostly Cloudy
3:15 AM 45.0 °F 43.5 °F 95% 30.07 in 10.0 mi Calm Calm - N/A   Mostly Cloudy
3:35 AM 43.7 °F 42.8 °F 97% 30.07 in 10.0 mi Calm Calm - N/A   Scattered Clouds
3:55 AM 43.0 °F 42.8 °F 99% 30.07 in 7.0 mi Calm Calm - N/A   Scattered Clouds
4:15 AM 42.3 °F 42.1 °F 99% 30.08 in 2.0 mi Calm Calm - N/A   Scattered Clouds
4:35 AM 42.3 °F 42.1 °F 99% 30.08 in 0.8 mi Calm Calm - N/A   Mostly Cloudy
4:55 AM 41.4 °F 40.6 °F 97% 30.08 in 10.0 mi Calm Calm - N/A   Clear
5:15 AM 40.1 °F 40.1 °F 100% 30.09 in 0.2 mi Calm Calm - N/A Fog Fog
5:35 AM 40.6 °F 40.6 °F 100% 30.09 in 4.0 mi Calm Calm - N/A   Scattered Clouds
5:55 AM 39.9 °F 39.9 °F 100% 30.10 in 0.5 mi Calm Calm - N/A Fog Fog
6:15 AM 38.7 °F 38.5 °F 99% 30.10 in 10.0 mi Calm Calm - N/A   Scattered Clouds
6:35 AM 39.4 °F 38.8 °F 98% 30.11 in 10.0 mi Calm Calm - N/A   Overcast
6:55 AM 37.8 °F 37.6 °F 99% 30.12 in 0.2 mi Calm Calm - N/A Fog Fog
7:15 AM 39.4 °F 39.4 °F 100% 30.12 in 0.2 mi Calm Calm - N/A Fog Fog
7:35 AM 40.5 °F 40.5 °F 100% 30.14 in 0.2 mi Calm Calm - N/A Fog Fog
7:55 AM 41.0 °F 41.0 °F 100% 30.14 in 0.2 mi Calm Calm - N/A Fog Fog
8:15 AM 41.9 °F 41.9 °F 100% 30.15 in 0.2 mi Calm Calm - N/A Fog Fog
8:35 AM 43.0 °F 43.0 °F 100% 30.16 in 0.2 mi Calm Calm - N/A Fog Fog
8:55 AM 44.4 °F 44.4 °F 100% 30.17 in 0.2 mi Calm Calm - N/A Fog Fog
9:15 AM 46.2 °F 46.2 °F 100% 30.18 in 0.2 mi Calm Calm - N/A Fog Fog
9:35 AM 47.3 °F 47.3 °F 100% 30.19 in 0.2 mi Calm Calm - N/A Fog Fog
9:55 AM 49.6 °F 49.6 °F 100% 30.19 in 2.5 mi Calm Calm - N/A   Mostly Cloudy
10:15 AM 51.6 °F 49.3 °F 92% 30.19 in 7.0 mi NE 3.5 mph - N/A   Scattered Clouds
10:35 AM 54.7 °F 48.6 °F 80% 30.19 in 10.0 mi ENE 3.5 mph - N/A   Clear
10:55 AM 57.0 °F 46.8 °F 69% 30.18 in 10.0 mi SE 3.5 mph - N/A   Clear
11:15 AM 60.6 °F 45.1 °F 57% 30.17 in 10.0 mi Calm Calm - N/A   Clear
11:35 AM 61.7 °F 43.3 °F 51% 30.17 in 10.0 mi Calm Calm - N/A   Clear
11:55 AM 64.2 °F 36.0 °F 35% 30.17 in 10.0 mi East 5.8 mph - N/A   Clear
12:15 PM 64.8 °F 36.1 °F 35% 30.17 in 10.0 mi ENE 3.5 mph - N/A   Clear
12:35 PM 64.6 °F 35.8 °F 34% 30.16 in 10.0 mi East 3.5 mph - N/A   Clear
12:55 PM 65.8 °F 36.1 °F 33% 30.16 in 10.0 mi Calm Calm - N/A   Clear
1:15 PM 67.3 °F 37.0 °F 33% 30.15 in 10.0 mi NW 4.6 mph - N/A   Clear
1:35 PM 66.9 °F 33.8 °F 29% 30.14 in 10.0 mi Calm Calm - N/A   Clear
1:55 PM 67.5 °F 33.3 °F 28% 30.13 in 10.0 mi Calm Calm - N/A   Clear
2:15 PM 68.5 °F 33.1 °F 27% 30.12 in 10.0 mi NNE 4.6 mph - N/A   Clear
2:35 PM 68.5 °F 32.5 °F 26% 30.12 in 10.0 mi Calm Calm - N/A   Clear
2:55 PM 70.0 °F 32.7 °F 25% 30.11 in 10.0 mi Calm Calm - N/A   Clear
3:15 PM 70.0 °F 30.9 °F 24% 30.11 in 10.0 mi NW 3.5 mph - N/A   Clear
3:35 PM 70.0 °F 32.0 °F 25% 30.11 in 10.0 mi Calm Calm - N/A   Clear
3:55 PM 70.0 °F 31.8 °F 24% 30.09 in 10.0 mi NNE 4.6 mph - N/A   Clear
4:15 PM 69.8 °F 32.0 °F 25% 30.10 in 10.0 mi North 3.5 mph - N/A   Clear
4:35 PM 69.8 °F 30.6 °F 23% 30.09 in 10.0 mi Calm Calm - N/A   Clear
4:55 PM 69.3 °F 30.4 °F 24% 30.09 in 10.0 mi Calm Calm - N/A   Clear
5:15 PM 69.4 °F 31.6 °F 25% 30.09 in 10.0 mi Calm Calm - N/A   Clear
5:35 PM 66.2 °F 32.0 °F 28% 30.10 in 10.0 mi Calm Calm - N/A   Clear
5:55 PM 65.3 °F 34.0 °F 31% 30.09 in 10.0 mi Calm Calm - N/A   Clear
6:15 PM 61.2 °F 36.1 °F 39% 30.09 in 10.0 mi Calm Calm - N/A   Clear
6:35 PM 58.5 °F 36.7 °F 44% 30.08 in 10.0 mi Calm Calm - N/A   Clear
6:55 PM 55.6 °F 37.8 °F 51% 30.08 in 10.0 mi Calm Calm - N/A   Clear
7:15 PM 52.5 °F 38.7 °F 59% 30.09 in 10.0 mi Calm Calm - N/A   Clear
7:35 PM 49.8 °F 37.6 °F 63% 30.09 in 10.0 mi Calm Calm - N/A   Clear
7:55 PM 50.0 °F 37.4 °F 62% 30.11 in 10.0 mi Calm Calm - N/A   Clear
8:15 PM 49.3 °F 38.7 °F 67% 30.12 in 10.0 mi Calm Calm - N/A   Clear
8:35 PM 47.8 °F 38.8 °F 71% 30.11 in 10.0 mi Calm Calm - N/A   Clear
8:55 PM 46.9 °F 37.4 °F 69% 30.12 in 10.0 mi Calm Calm - N/A   Clear
9:15 PM 46.6 °F 38.7 °F 74% 30.12 in 10.0 mi Calm Calm - N/A   Clear
9:35 PM 45.9 °F 38.5 °F 75% 30.12 in 10.0 mi Calm Calm - N/A   Clear
9:55 PM 44.2 °F 38.1 °F 79% 30.11 in 10.0 mi Calm Calm - N/A   Clear
10:15 PM 44.6 °F 38.3 °F 79% 30.11 in 10.0 mi Calm Calm - N/A   Clear
10:35 PM 44.2 °F 38.3 °F 80% 30.11 in 10.0 mi Calm Calm - N/A   Clear
10:55 PM 44.1 °F 37.9 °F 79% 30.11 in 10.0 mi Calm Calm - N/A   Clear
11:15 PM 42.6 °F 37.4 °F 82% 30.10 in 10.0 mi Calm Calm - N/A   Clear
11:35 PM 42.1 °F 37.6 °F 84% 30.10 in 10.0 mi Calm Calm - N/A   Clear
11:55 PM 41.7 °F 37.4 °F 85% 30.10 in 10.0 mi Calm Calm - N/A   Clear